Preview of NWS' New Version of Forecast
This preview is not operational and should not be used for support decisions.

Regional Weather Roundup (RWR)

Issued by National Weather Service (NWS)

                            
000
ASUS46 KSEW 211110
RWRWA 

WASHINGTON REGIONAL WEATHER ROUNDUP
NATIONAL WEATHER SERVICE SEATTLE WA
300 AM PST THU FEB 21 2019

NOTE:"FAIR" INDICATES FEW OR NO CLOUDS BELOW 12,000 FEET WITH NO 
SIGNIFICANT WEATHER AND/OR OBSTRUCTIONS TO VISIBILITY.

WAZ507-509-555>559-211200-
SEATTLE, TACOMA, EVERETT, AND VICINITY
  
CITY           SKY/WX    TMP DP  RH WIND       PRES   REMARKS
EVERETT        FOG       30  29  96 CALM      30.06R VSB 1/2          
BOEING FIELD   MOCLDY    38  32  79 CALM      30.07R                  
RENTON         CLEAR     33  30  88 E3        30.07R                  
SEATAC AIRPORT CLOUDY    38  31  76 NE7       30.05R                  
JBLM-MCCHORD   CLOUDY    32  32 100 CALM      30.06R                  
PUYALLUP       CLOUDY    32  32 100 CALM      30.05R                  
BREMERTON      CLEAR     26  25  96 CALM      30.06R                  
JBLM-FT LEWIS  CLOUDY    32  32 100 CALM      30.06R                  
TACOMA NARROWS CLOUDY    39  31  72 N8        30.06R                  
$$
 
WAZ001-503-506-510-514-515-211200-
NORTH INTERIOR
  
CITY           SKY/WX    TMP DP  RH WIND       PRES   REMARKS
BELLINGHAM     CLEAR     31  24  75 N7        30.09R                  
FRIDAY HARBOR  CLEAR     39  33  79 N7        30.10R                  
EASTSOUND      CLEAR     37  34  87 CALM      30.10R                  
PORT ANGELES   CLEAR     27  26  96 CALM      30.10S                  
EDIZ HOOK      FAIR      37  33  86 S5        30.11S                  
PORT TOWNSEND  FAIR      37  28  70 NW5       30.08R                  
NAS WHIDBEY    PTCLDY    33  27  78 CALM      30.12R                  
ARLINGTON      PTCLDY    24  23  96 CALM      30.08R                  
BURLINGTON     CLEAR     32  28  86 NE7       30.08S                  
$$
 
WAZ020-022-039-040-504-511-512-211200-
SOUTHWEST INTERIOR
  
CITY           SKY/WX    TMP DP  RH WIND       PRES   REMARKS
SHELTON        CLEAR     28  24  85 CALM      30.05R                  
OLYMPIA        MOCLDY    27  26  96 CALM      30.06R                  
CHEHALIS       CLOUDY    30  30 100 CALM      30.06R FOG              
KELSO          PTCLDY    26  24  92 CALM      30.06R                  
VANCOUVER      CLEAR     31  29  92 CALM      30.04R                  
SCAPPOOSE, OR  CLEAR     35  29  78 CALM      30.04R                  
PORTLAND, OR   CLOUDY    36  33  89 NW6       30.05R                  
$$
 
WAZ021-516-517-211200-
WASHINGTON COAST
  
CITY           SKY/WX    TMP DP  RH WIND       PRES   REMARKS
FORKS          CLEAR     28  26  92 N5        30.08R                  
HOQUIAM        CLEAR     31  30  96 NE6       30.06S                  
ASTORIA, OR    CLEAR     32  30  92 E5        30.05R                  
$$
 
WAZ019-023-024-040-567>569-211200-
CASCADE MOUNTAINS AND COLUMBIA GORGE
  
CITY           SKY/WX    TMP DP  RH WIND       PRES   REMARKS
STAMPEDE PASS  CLEAR     21  15  78 CALM      29.88R                  
TROUTDALE, OR  CLEAR     34  28  79 NE6       30.04R                  
HOOD RIVER, OR PTSUNNY   27  25  93 S7        30.05R FOG              
THE DALLES, OR CLOUDY    30  27  88 N5        30.06R                  
$$

WAZ026-027-041>044-520-521-211200-
EAST SLOPES
  
CITY           SKY/WX    TMP DP  RH WIND       PRES   REMARKS
OMAK           CLOUDY    31  23  72 NW13      30.04R WCI  21          
WENATCHEE      CLOUDY    25  20  81 SW5       30.01R                  
ELLENSBURG     CLOUDY    21  15  78 CALM      29.98R HAZE             
YAKIMA         CLOUDY    17  13  84 W7        30.01R                  
SUNNYSIDE ARPT MOSUNNY   15  13  93 CALM      30.02                   
YAKIMA TC      FAIR      20  17  87 CALM      29.98R                  
$$

WAZ028-034-035-211200-
COLUMBIA BASIN
  
CITY           SKY/WX    TMP DP  RH WIND       PRES   REMARKS
EPHRATA        CLOUDY    14  10  84 SE5       29.98R                  
MOSES LAKE     MOCLDY    18  11  74 N5        29.99R                  
PASCO          CLOUDY    22  19  89 CALM      30.03R                  
RICHLAND ARPT  CLOUDY    21  21  97 CALM      30.03S FOG              
HERMISTON, OR  CLOUDY    28  24  85 W6        30.01R                  
$$

WAZ036>038-211200-
NORTHEAST WASHINGTON
  
CITY           SKY/WX    TMP DP  RH WIND       PRES   REMARKS
SPOKANE GEIGER PTCLDY    14  11  87 NE6       29.93R                  
SPOKANE FELTS  MOCLDY    16  13  88 CALM      29.96S                  
FAIRCHILD AFB  CLEAR     19  18  99 NE10      29.91R WCI   7          
COEURDALENE,ID CLEAR     17  13  84 NE12      29.94R WCI   4          
DEER PARK      CLEAR     13  10  88 VRB3      29.96R                  
$$

WAZ029>033-211200-
SOUTHEAST WASHINGTON
  
CITY           SKY/WX    TMP DP  RH WIND       PRES   REMARKS
PULLMAN        FOG       20  19  96 CALM      29.90R VSB 1/4          
LEWISTON, ID   CLOUDY    26  23  88 CALM      29.95R                  
WALLA WALLA    LGT SNOW  27  23  85 S7        29.97S FOG              
PENDLETON, OR  LGT SNOW  27  24  89 W7        29.95S FOG              
$$